This is the latest recevied weather packets stored in our database for station/object N4ASP-13. If no packets are shown the sender has not sent any weather packets the latest 10 day(s).
| Time | Temp. | Humidity | Pressure | Rain* | Wind** | Luminosity | Snow |
|---|---|---|---|---|---|---|---|
| 1777651211 | 13.89° C | 57% | 1015.1 hPa | 0 mm | - | 800 W/m² | - |
| 1777651146 | 13.89° C | 56% | 1015.4 hPa | 0 mm | - | 1181 W/m² | - |
| 1777651087 | 13.89° C | 56% | 1015.3 hPa | 0 mm | - | 1181 W/m² | - |
| 1777651027 | 13.89° C | 54% | 1015.3 hPa | 0 mm | - | 1248 W/m² | - |
| 1777650967 | 13.89° C | 54% | 1015.3 hPa | 0 mm | - | 1248 W/m² | - |
| 1777650906 | 13.89° C | 53% | 1015.4 hPa | 0 mm | - | 490 W/m² | - |
| 1777650846 | 13.89° C | 54% | 1015.4 hPa | 0 mm | - | 490 W/m² | - |
| 1777650787 | 13.89° C | 55% | 1015.4 hPa | 0 mm | - | 700 W/m² | - |
| 1777650726 | 13.89° C | 56% | 1015.4 hPa | 0 mm | - | 737 W/m² | - |
| 1777650665 | 13.89° C | 55% | 1015.3 hPa | 0 mm | - | 1322 W/m² | - |
| 1777650606 | 13.33° C | 56% | 1015.4 hPa | 0 mm | - | 1322 W/m² | - |
| 1777650545 | 13.89° C | 56% | 1015.4 hPa | 0 mm | - | 1322 W/m² | - |
| 1777650486 | 13.33° C | 56% | 1015.4 hPa | 0 mm | - | 1171 W/m² | - |
| 1777650425 | 13.33° C | 56% | 1015.4 hPa | 0 mm | - | 1229 W/m² | - |
| 1777650366 | 13.33° C | 55% | 1015.4 hPa | 0 mm | - | 708 W/m² | - |
| 1777650306 | 13.33° C | 55% | 1015.4 hPa | 0 mm | - | 708 W/m² | - |
| 1777650247 | 13.89° C | 57% | 1015.5 hPa | 0 mm | - | 708 W/m² | - |
| 1777650186 | 13.89° C | 57% | 1015.5 hPa | 0 mm | - | 874 W/m² | - |
| 1777650127 | 13.89° C | 57% | 1015.5 hPa | 0 mm | - | 1123 W/m² | - |
| 1777650066 | 13.89° C | 56% | 1015.5 hPa | 0 mm | - | 1123 W/m² | - |
| 1777650006 | 13.89° C | 57% | 1015.5 hPa | 0 mm | - | 1123 W/m² | - |
| 1777649946 | 13.89° C | 60% | 1015.5 hPa | 0 mm | - | 1158 W/m² | - |
| 1777649886 | 13.89° C | 59% | 1015.5 hPa | 0 mm | - | 1116 W/m² | - |
| 1777649825 | 13.89° C | 57% | 1015.5 hPa | 0 mm | - | 1185 W/m² | - |
| 1777649766 | 13.89° C | 60% | 1015.5 hPa | 0 mm | - | 995 W/m² | - |
* Rain latest hour (hover to see other rain measurements)
** Current wind speed in m/s (hover to see current wind gust speed)